User: anonymous   Login
Location: Unspecified
(0.0000°N, 0.0000°E)
Time: 06:37:27
(UTC+00:00)
Language:

Tiros 1 - Orbit

View from above orbital plane
View from above orbital plane
View from above satellite
View from above satellite

Ground track
Ground track

The orbit data is extracted from the following two-line orbital elements,

1 00029U 60002B   14329.98711416  .00000657  00000-0  13097-3 0  3877
2 00029 048.3776 167.5738 0024849 189.8664 170.1762 14.73452692919099
Epoch (UTC): 25 November 2014 23:41:26
Eccentricity: 0.0024849
inclination: 48.3776°
perigee height: 632 km
apogee height: 667 km
right ascension of ascending node: 167.5738°
argument of perigee: 189.8664°
revolutions per day: 14.73452692
mean anomaly at epoch: 170.1762°
orbit number at epoch: 91909

The dashed part of the orbit path shows where the satellite is in the earth's shadow,  

DLR